Regional Weather Roundup
Issued by NWS Charleston, SC

Current Version | Previous Version | Graphics & Text | Print | Product List | Glossary On
Versions: 1 2 3 4 5 6 7 8 9 10 11 12 13 14 15 16 17 18 19 20 21 22 23 24 25 26 27 28 29 30 31 32 33 34 35 36 37 38 39 40 41 42 43 44 45 46 47 48 49 50
000
ASUS42 KCHS 190612
RWRCHS

REGIONAL WEATHER ROUNDUP
NATIONAL WEATHER SERVICE CHARLESTON SC
100 AM EST SUN FEB 19 2017

NOTE: "FAIR" INDICATES FEW OR NO CLOUDS BELOW 12,000 FEET WITH NO
SIGNIFICANT WEATHER AND/OR OBSTRUCTIONS TO VISIBILITY.

NOT ALL STATIONS ARE QUALITY CONTROLLED. USE DATA WITH CAUTION...
ESPECIALLY DEWPOINT OBSERVATIONS.

SCZ027-030-031-034>040-042>050-190700-
...SOUTHEAST SOUTH CAROLINA...

CITY           SKY/WX    TMP DP  RH WIND       PRES   REMARKS
N CHARLESTON   PTCLDY    53  45  74 NW8       29.97F
6HR MIN TEMP:  52; 6HR MAX TEMP:  62;

WATERFRONT PRK   N/A     58  52  80 VRB3      29.96F
MOUNT PLEASANT LGT RAIN  52  50  93 CALM      29.97F
JOHNS ISLAND   FAIR      52  50  93 NW6       29.97F
PINOPOLIS        N/A     55  48  76 NW5       29.89S
MONCKS CORNER  MOCLDY    50  45  81 CALM      29.97F
SUMMERVILLE    CLOUDY    50  45  81 CALM      29.98F
BEAUFORT MCAS  PTCLDY    53  49  86 NW7       29.97F
6HR MIN TEMP:  50; 6HR MAX TEMP:  60;

BEAUFORT ARPT  FAIR      54  48  82 NW8       29.96F
HILTON HEAD IS CLEAR     52  52 100 CALM      29.97F
WALTERBORO     PTCLDY    48  45  87 CALM      29.99F
ALLENDALE      FAIR      50  46  87 CALM      29.98F

...SOUTHERN MIDLANDS AND PEE DEE...

CITY           SKY/WX    TMP DP  RH WIND       PRES   REMARKS
GEORGETOWN     FAIR      46  46 100 CALM      29.97F
KINGSTREE      CLOUDY    50  45  81 CALM      29.97F
ORANGEBURG     MOCLDY    51  48  89 NW5       29.98F
6HR MIN TEMP:  51; 6HR MAX TEMP:  60;

BARNWELL       CLOUDY    50  50 100 CALM      29.98F
AIKEN          CLOUDY    48  46  93 W3        30.01F
MANNING        FAIR      50  41  71 MISG      29.98F
COLUMBIA       CLOUDY    52  49  89 W3        29.97F
6HR MIN TEMP:  49; 6HR MAX TEMP:  55;

SUMTER         MOCLDY    53  47  81 W3        29.95F
6HR MIN TEMP:  53; 6HR MAX TEMP:  58; 6HR PCP: TRACE;

FLORENCE       PTCLDY    53  47  79 W5        29.96F
6HR MIN TEMP:  53; 6HR MAX TEMP:  63;

MYRTLE BEACH   CLEAR     55  49  80 W5        29.96F
N MYRTLE BEACH CLEAR     53  52  96 NW3       29.95F
6HR MIN TEMP:  53; 6HR MAX TEMP:  59; 6HR PCP: TRACE;


$$

GAZ063-065-086>088-099>101-113>116-118-119-134>141-150-190700-
...SOUTHEAST GEORGIA...

CITY           SKY/WX    TMP DP  RH WIND       PRES   REMARKS
SAVANNAH ARPT  CLEAR     50  46  86 W5        29.99F
6HR MIN TEMP:  49; 6HR MAX TEMP:  61;

HUNTER AAF     CLEAR     49  49 100 W3        29.96S
6HR MIN TEMP:  49; 6HR MAX TEMP:  58;

FORT STEWART   CLEAR     49  46  92 CALM      29.96F
6HR MIN TEMP:  49; 6HR MAX TEMP:  57;

STATESBORO     MOCLDY    49  49 100 CALM      29.99F FOG
SYLVANIA       MOCLDY   N/A N/A N/A CALM      30.00F
CLAXTON        MOCLDY   N/A N/A N/A CALM      30.00S

...CSRA...CENTRAL AND FAR SOUTHEAST GEORGIA...

CITY           SKY/WX    TMP DP  RH WIND       PRES   REMARKS
THOMSON        CLOUDY    51  51 100 CALM      30.02F
AUGUSTA-BUSH   CLOUDY    52  50  93 CALM      29.98F
6HR MIN TEMP:  49; 6HR MAX TEMP:  55;

AUGUSTA-DANIEL CLOUDY    53  49  86 CALM      29.99F
SWAINSBORO     CLOUDY    52  52 100 CALM      30.00F
VIDALIA        CLOUDY    54  54 100 N3        29.99F
EASTMAN        CLOUDY    55  55 100 CALM      30.02F
HAZLEHURST     MOCLDY    56  56 100 CALM      29.98F
ALMA           PTCLDY    53  52  96 CALM      29.99S
6HR MIN TEMP:  52; 6HR MAX TEMP:  60;

WAYCROSS       CLEAR     56  56 100 SW3       30.00S FOG
JESUP          FAIR      54  52  94 CALM      29.99F
BAXLEY         MOCLDY    54  54 100 CALM      29.99S
BRUNSWICK      PTCLDY    59  59 100 CALM      29.99F
SAINT SIMONS   PTCLDY    59  56  89 W3        29.98F
6HR MIN TEMP:  57; 6HR MAX TEMP:  66;


$$

SCZ027-028-034-036>038-045-046-048>050-GAZ119-141-190700-
...LAKE AND SUPPLEMENTAL COASTAL OBSERVATIONS...

STATION/POSITION TIME  TEMP    WIND        PRES    WAVE   SWELL
                       AIR SEA DIR/SP/G            HT/PER HT/PER/DIR
                 (UTC) (F)     (DEG/KT/KT) (MB)    (FT/S) (FT/S/D)
WINYAH BAY       0445   55     230/  2     1015.0
LAKE MURRAY      0520   52     240/  2/  4 1014.6F
ACE BASIN NERRS  NOT AVBL
FORT PULASKI     0548   57 60  310/  5/  6 1015.0F
SAPELO ISLAND    0500   57        CALM     1015.0

$$

ANZ835-935-AMZ111-154-330-350-352-354-370-450-454-472-190700-
...C-MAN AND BUOY OBSERVATIONS...

STATION/POSITION TIME  TEMP    WIND        PRES    WAVE   SWELL
                       AIR SEA DIR/SP/G            HT/PER HT/PER/DIR
                 (UTC) (F)     (DEG/KT/KT) (MB)    (FT/S) (FT/S/D)
BUOY 41004       0550   65 69  280/ 10/ 12 1013.6F   2/ 6   2/190/ 6
BUOY 41008       0450   62 61  260/  6/  6 1015.0    2/ 4   2/150/ 4
FOLLY BEACH CMAN 0500   58     250/  3/  4 1015.3F
CAPERS NEARSHORE 0508   59 59  240/  6/  6 1014.5F
FRIPP NEARSHORE  0508   59 59  300/  6/  8 1014.7F


STATION/POSITION TIME  TEMP    WIND        PRES    WAVE   SWELL
                       AIR SEA DIR/SP/G            HT/PER HT/PER/DIR
                 (UTC) (F)     (DEG/KT/KT) (MB)    (FT/S) (FT/S/D)
5E ST. MARYS GA  0530      63                N/A     2/ 4
FRYING PAN BUOY  0550   64 65  250/ 12/ 14 1014.0F   2/ 5
BUOY 41025       0550   67 67  240/ 17/ 23 1013.0F   4/ 6   2/170/12
CAPE LOOKOUT NC  0500   60     220/  9/ 12 1013.6F
BUOY 41002       0550   70 71  190/ 17/ 19 1016.4F   4/ 6   2/ 10/ 9
BUOY 41010       NOT AVBL
ST AUGUSTINE FL  0600   63 66  240/  2/  3 1016.5F


$$




USA.gov is the U.S. government's official web portal to all federal, state and local government web resources and services.